Theta_e
319 322 328 328 329 328 334 333 329 338 332 328 335 330 326 332 328 322 319 318 319 320 320 323 327 324 323 326 329 331 330 334 337 333 334 332 327 330 331 328 331 329 329 328 327 328 327 326 324 323 323 324 326 328 333 334 334 335 335 335 336 337 336 336 337 336 336 337 338 337 337 337 337 337 337 336 335 334 333 333 334 335 336 336 337 337 337 338 338 338 338 338 338 337 337 337 336
323 327 330 328 330 327 336 340 332 337 335 330 332 330 331 331 322 323 324 321 322 321 322 324 326 324 323 327 325 326 325 325 329 329 327 324 326 330 329 329 330 328 329 327 326 325 324 324 322 320 319 320 322 325 332 333 333 334 333 334 334 335 335 335 335 335 335 336 336 335 334 334 334 334 335 334 333 332 331 331 333 334 335 335 336 337 337 337 337 337 336 336 337 337 336 336 336
327 330 330 328 330 330 341 341 335 331 326 327 331 335 329 321 324 332 329 324 323 321 322 321 322 322 320 323 321 323 326 321 322 323 322 323 326 328 329 330 329 329 328 327 326 324 323 321 319 318 318 318 320 325 331 331 332 332 332 332 333 334 334 334 335 334 334 334 334 333 332 332 332 332 332 332 331 330 330 330 331 332 333 334 335 335 335 334 334 334 334 334 334 334 334 333 332
328 330 328 330 336 340 347 339 341 333 322 329 329 335 333 324 333 334 327 325 324 321 321 320 320 319 318 322 320 322 328 323 320 322 324 323 325 329 329 329 329 329 328 327 326 323 321 318 317 318 318 318 322 328 331 330 331 331 331 331 331 332 332 332 332 332 331 331 331 330 330 330 330 330 330 329 328 328 328 328 328 329 330 331 332 331 330 330 330 330 330 330 330 329 329 328 328
326 329 324 329 339 340 341 333 338 332 327 335 326 332 339 333 336 329 324 323 323 322 322 321 321 319 317 321 320 322 328 326 320 318 323 323 325 328 327 328 328 328 328 327 325 321 317 317 318 319 318 321 326 329 329 330 330 330 329 329 329 329 329 329 329 329 329 328 328 327 327 327 327 327 326 326 325 325 325 325 325 325 326 327 326 326 326 326 325 325 325 324 323 322 321 321 321
325 326 324 326 330 332 336 332 333 332 334 336 327 334 337 331 331 326 321 319 321 321 320 320 320 319 319 320 318 320 324 325 321 318 320 322 325 327 327 327 327 328 328 326 326 322 317 317 318 319 320 324 328 329 328 329 329 329 328 328 328 328 328 327 327 327 327 326 326 325 325 325 324 324 323 322 321 320 319 319 318 319 320 321 321 321 322 321 321 320 319 317 315 313 312 312 311
325 325 331 330 328 332 337 335 336 338 334 331 331 332 329 329 325 323 321 318 320 318 318 319 319 320 320 318 317 318 318 320 320 319 319 321 326 326 327 326 327 328 327 326 326 324 319 316 319 324 325 325 328 328 328 328 328 328 328 327 326 327 326 326 325 324 324 323 322 321 321 320 320 319 317 316 314 313 311 310 309 308 309 310 312 314 315 315 314 311 309 306 304 303 302 302 302
324 326 333 338 333 331 331 332 335 335 330 327 329 327 327 328 322 321 323 319 319 318 318 320 319 320 320 317 320 318 315 319 319 319 319 321 326 326 326 325 326 326 326 326 326 325 319 316 322 327 326 326 326 325 326 325 325 324 325 324 323 323 322 321 320 319 318 317 315 313 313 312 311 310 308 307 306 305 304 303 302 301 301 301 302 304 305 306 305 302 300 299 298 298 298 298 298
323 324 328 333 328 326 330 331 329 329 329 326 323 325 328 324 319 322 324 320 319 320 319 321 320 318 319 319 322 318 315 319 318 319 318 321 325 325 325 325 326 325 325 325 325 324 319 317 321 324 322 321 320 318 318 317 316 316 317 317 316 316 315 314 313 312 311 308 307 305 304 304 304 303 302 302 301 300 299 299 299 299 299 298 299 299 299 300 299 298 298 297 297 297 297 297 297
324 325 327 331 326 325 330 328 329 331 332 330 323 323 327 321 318 321 324 322 321 320 319 319 318 316 319 321 324 319 316 318 317 319 319 321 324 325 325 325 325 325 324 324 323 322 318 318 319 319 316 313 311 309 308 307 307 307 307 308 308 309 308 308 307 305 304 303 301 300 300 300 300 300 299 299 299 299 298 298 299 298 299 298 298 298 298 298 297 297 297 297 297 298 298 298 298
331 332 332 330 328 327 329 330 334 336 332 330 324 322 323 320 319 320 321 320 320 320 318 317 318 320 318 320 325 318 315 317 317 319 318 320 324 325 325 324 324 324 323 322 321 319 317 318 319 316 312 308 306 305 304 303 303 303 303 303 303 303 303 302 302 301 300 300 299 299 299 299 298 298 298 298 298 298 298 298 298 298 298 298 298 298 298 297 297 297 297 297 297 299 299 299 300
330 337 337 329 331 330 330 334 334 333 333 329 323 321 321 318 318 321 321 320 320 320 319 317 319 321 318 322 323 314 313 317 317 318 319 320 323 323 323 323 322 322 321 320 319 317 316 318 318 315 309 306 305 303 303 302 302 302 301 301 301 300 300 300 299 299 299 299 298 298 298 298 298 298 298 298 298 298 297 297 297 297 297 297 297 297 297 297 297 297 297 297 297 299 298 298 299
329 335 335 329 335 333 328 333 334 331 333 333 325 319 318 317 319 323 323 320 320 321 321 319 317 318 319 324 320 313 313 316 317 318 319 320 321 321 320 321 320 321 320 319 319 317 315 316 316 313 307 305 303 302 301 301 301 301 300 300 300 299 299 299 299 299 299 298 298 298 298 298 298 298 298 297 297 297 297 297 296 297 296 297 297 297 297 297 297 297 297 296 297 297 297 297 297
327 333 330 328 333 332 326 329 332 325 327 335 326 319 318 318 320 324 323 320 321 321 319 316 316 318 320 321 321 322 316 313 317 317 319 320 319 318 318 319 320 320 320 319 319 317 315 314 314 310 306 304 301 301 301 301 301 300 300 300 299 299 299 299 299 298 298 298 298 298 298 298 298 298 297 297 297 297 297 296 296 297 297 297 297 297 297 297 297 297 297 296 296 296 296 296 296
324 336 330 327 330 328 325 325 326 320 324 333 322 318 319 317 319 322 321 319 321 318 315 314 315 318 320 319 327 329 317 313 316 316 318 317 315 315 316 318 319 319 318 318 318 317 315 314 314 309 305 303 301 300 300 300 300 300 300 299 299 299 299 299 298 298 298 298 299 298 298 298 298 297 297 297 296 296 297 297 297 297 297 297 297 297 297 297 297 297 297 296 297 296 296 296 296
330 340 329 326 329 325 324 326 325 321 328 334 322 317 319 319 318 318 318 317 319 316 315 317 315 316 320 320 322 319 313 314 315 315 316 313 311 312 315 317 317 318 317 317 316 315 314 313 313 308 305 303 300 300 300 300 300 300 299 299 299 299 298 298 298 298 298 298 299 298 298 298 298 297 297 297 297 297 297 297 297 297 297 297 297 297 297 297 297 296 296 296 296 296 296 296 296
335 335 325 326 330 326 327 329 324 321 329 334 323 317 318 320 318 315 314 313 318 317 318 320 315 314 317 317 315 312 313 314 313 314 312 309 309 310 313 315 315 316 316 315 314 314 313 313 312 308 304 302 300 300 300 299 299 299 299 299 298 298 298 298 297 298 298 298 298 298 298 298 297 297 297 297 297 297 297 297 297 296 296 296 296 296 296 296 296 295 295 295 295 295 295 295 295
331 328 323 324 328 328 332 334 327 321 324 326 323 319 318 321 320 316 314 315 317 316 318 319 316 314 312 311 311 312 312 312 312 312 309 307 307 307 309 312 313 314 314 314 313 313 312 312 311 307 304 302 300 299 299 299 299 299 298 298 298 298 298 297 297 297 298 298 298 298 297 297 297 297 297 297 297 297 297 296 296 296 296 295 295 295 295 295 294 294 294 294 294 294 295 295 295
330 331 324 327 331 330 331 331 325 320 318 322 324 321 317 319 320 315 315 320 319 317 318 317 317 316 313 310 309 310 311 310 311 309 307 305 305 305 306 307 309 310 311 312 311 311 310 310 310 307 304 301 299 299 298 298 298 299 298 298 298 298 297 297 297 297 297 297 297 297 297 297 297 297 297 297 297 297 296 296 295 295 295 295 294 294 294 294 294 294 294 294 294 294 294 295 294
331 329 325 332 333 328 328 325 322 319 317 319 322 319 316 318 317 314 316 320 319 318 317 316 318 318 318 313 307 308 309 308 309 308 306 305 305 305 305 305 306 307 309 309 309 309 309 309 309 307 303 301 299 298 298 298 298 298 298 298 298 297 297 297 297 297 297 297 297 297 297 297 297 297 297 297 296 296 295 295 295 294 294 294 294 294 294 294 294 294 294 294 295 294 295 294 294
327 323 325 334 327 323 325 323 322 321 317 318 321 318 317 318 316 315 317 318 317 316 315 316 319 317 319 317 308 306 307 307 307 307 306 305 305 305 305 306 306 306 307 307 307 307 307 307 306 305 303 300 299 298 297 297 297 298 298 298 297 297 297 297 297 297 297 297 297 296 296 296 296 296 297 296 296 295 295 294 294 294 294 294 294 294 294 294 294 295 295 295 295 295 295 294 294
324 323 325 327 322 320 321 323 323 320 318 318 320 317 317 318 315 317 317 317 316 316 317 316 317 317 318 317 309 305 306 306 306 305 305 305 305 305 305 306 305 305 305 306 306 306 306 305 304 304 302 300 299 298 297 297 297 297 297 297 297 297 297 297 296 297 297 296 296 297 296 295 295 296 296 296 295 295 295 294 294 294 294 294 294 294 295 295 295 295 295 295 294 294 294 294 294
323 324 323 322 319 318 319 321 321 319 317 317 318 317 317 317 316 318 318 316 315 316 321 319 317 314 312 312 309 308 309 308 306 305 305 305 305 305 305 305 305 305 305 305 306 306 306 305 303 302 301 299 298 298 297 297 297 297 297 297 297 297 296 296 296 296 297 297 296 296 296 295 295 296 295 296 295 295 295 295 295 294 294 295 294 295 295 295 295 295 295 294 294 294 294 294 294
323 323 323 321 319 319 319 318 319 319 317 317 316 315 315 317 317 317 317 315 314 314 319 320 315 309 308 313 312 312 310 308 306 306 306 306 306 307 306 306 305 305 305 305 305 305 305 304 303 302 301 299 298 298 298 298 298 297 297 297 297 297 296 296 296 296 297 297 295 296 296 295 295 296 295 296 295 295 295 295 295 295 295 295 295 295 295 295 295 295 295 294 294 294 294 293 293
323 323 322 320 319 319 319 317 317 318 317 316 315 315 316 316 315 315 315 315 314 314 315 317 315 311 312 315 314 312 310 308 306 306 306 306 307 307 306 305 305 304 304 304 304 304 304 304 303 302 301 300 299 299 299 299 298 297 297 297 297 296 296 296 295 296 297 296 295 296 297 296 295 296 295 295 295 295 295 295 295 295 295 295 295 295 295 295 295 295 294 294 294 293 293 293 293
323 322 321 319 317 318 317 316 316 316 316 315 315 316 315 315 315 314 315 314 313 315 315 315 314 315 315 314 313 311 311 309 306 306 306 306 306 306 305 305 305 305 305 305 304 304 304 303 303 302 301 301 300 300 300 300 298 297 296 296 296 296 296 296 295 295 296 296 295 296 297 296 296 296 296 295 295 296 295 295 295 295 295 295 295 295 295 295 295 295 294 294 293 293 293 293 293
319 318 319 317 315 316 315 315 315 314 315 316 315 316 315 314 314 314 315 315 315 316 316 314 313 314 313 312 312 310 310 309 307 307 306 306 305 305 305 305 305 305 305 305 304 304 303 303 303 302 302 301 301 300 300 300 298 297 296 296 296 296 295 295 295 295 295 295 296 296 297 296 295 295 296 295 295 296 296 295 295 294 295 295 295 295 295 295 295 295 294 294 293 293 292 292 292
315 315 316 317 315 315 314 314 314 313 315 317 315 314 315 313 313 314 315 315 316 316 317 315 314 314 312 312 311 310 310 308 307 307 306 306 306 305 305 305 306 305 305 305 305 304 303 303 303 302 302 301 301 300 300 300 299 297 296 296 296 296 295 295 295 295 295 295 296 297 297 296 295 295 295 295 295 296 296 295 295 294 295 295 295 295 295 295 295 294 294 293 292 292 292 292 292
314 314 316 316 315 315 314 314 314 314 315 317 315 315 315 314 315 315 313 314 314 314 316 315 314 313 312 312 311 311 309 307 306 306 306 307 307 307 306 307 307 305 306 306 305 304 304 304 303 302 302 301 301 301 300 300 299 297 296 297 296 296 297 296 296 296 295 295 296 297 297 296 295 295 295 295 295 295 295 295 295 295 295 295 295 295 295 295 294 293 293 293 292 292 292 292 292
315 314 315 315 315 316 315 315 315 314 315 316 315 314 316 316 315 315 314 313 313 314 315 314 313 312 311 311 311 311 309 307 307 306 307 308 308 308 307 308 307 306 306 305 304 305 304 304 303 302 301 301 301 301 300 300 299 297 296 297 297 297 298 297 296 297 296 294 295 296 296 295 294 294 294 295 295 295 295 295 295 295 295 295 295 295 295 294 294 293 293 293 293 292 292 292 292
315 314 315 316 315 317 315 315 316 315 315 315 315 314 315 316 315 315 314 313 313 315 315 313 313 312 311 311 311 311 310 308 307 307 308 308 308 308 308 308 307 307 307 305 306 305 304 303 303 302 301 301 301 301 301 300 299 297 297 298 298 298 298 297 296 297 296 295 294 295 295 295 294 294 294 295 295 295 295 295 295 295 295 295 295 295 295 294 294 294 294 293 293 292 292 292 291
320 315 316 318 317 316 314 314 315 315 314 312 314 317 316 315 315 316 314 313 314 315 315 314 312 312 311 311 310 310 310 308 306 307 308 308 308 308 308 308 307 307 307 307 306 305 304 303 303 302 301 301 301 301 300 300 299 297 297 298 298 298 298 297 297 297 297 295 294 294 294 294 294 293 294 294 294 295 295 295 294 294 294 294 294 295 295 295 295 294 293 293 292 292 292 291 291
324 316 315 319 317 315 315 317 317 315 314 312 313 317 317 316 316 316 314 313 314 314 314 313 311 311 311 310 310 310 310 310 309 307 307 308 308 308 308 308 308 308 307 307 306 305 304 303 303 302 302 302 301 301 300 300 299 298 298 298 299 299 298 298 297 297 297 296 294 294 294 294 293 293 294 293 294 294 294 294 294 294 294 294 294 295 295 295 294 293 293 292 292 291 291 291 290
319 316 316 318 316 314 315 319 318 315 314 314 313 314 315 316 316 317 315 313 313 314 314 313 311 310 310 311 310 310 310 310 310 309 308 308 308 308 309 309 308 308 308 307 306 305 304 303 303 302 302 302 301 301 300 300 299 299 299 299 299 299 298 298 298 298 297 296 296 294 293 293 293 293 293 293 293 293 294 294 294 294 294 294 294 294 295 294 293 293 292 291 291 291 290 290 290
315 317 319 319 317 315 315 316 316 314 314 315 314 313 313 314 314 314 314 313 313 313 314 313 311 310 311 311 311 311 311 310 310 309 308 309 308 308 308 308 309 308 307 307 306 305 304 303 302 302 301 301 301 300 300 299 299 299 299 299 299 299 298 298 298 298 297 296 296 295 294 293 292 293 293 292 292 293 293 293 293 294 293 293 294 294 294 294 293 292 291 291 291 290 290 290 290
314 316 317 319 317 314 315 314 314 315 314 314 315 313 313 312 312 313 313 313 312 312 312 311 311 311 311 311 311 312 312 312 311 309 309 309 309 309 308 308 308 308 307 306 305 304 303 302 301 301 301 300 300 300 299 299 298 298 298 298 299 298 298 298 297 297 296 296 296 295 294 292 292 292 292 292 292 293 293 293 293 293 293 293 293 293 293 293 292 291 291 291 290 290 290 290 290
313 314 315 316 315 313 313 312 313 314 314 314 315 314 313 313 313 313 313 313 313 313 312 312 311 311 311 311 312 312 312 312 311 309 309 309 309 309 309 308 307 307 306 305 305 304 303 302 301 300 300 300 300 299 299 299 298 298 298 298 298 298 297 297 297 296 296 296 295 295 294 292 292 292 291 291 292 292 292 293 293 293 293 293 292 292 292 292 291 291 290 290 290 290 290 289 289
313 314 314 314 314 313 312 312 313 313 313 313 314 314 313 313 313 312 313 313 313 313 312 312 312 311 311 311 311 312 312 313 313 311 309 307 308 309 308 307 307 306 306 305 305 304 303 301 301 300 300 300 300 300 299 299 299 299 298 298 298 297 297 297 297 296 296 295 295 295 294 292 291 291 291 291 291 292 292 292 293 293 292 292 292 291 291 291 291 290 290 289 289 289 289 289 289
314 314 314 314 314 313 312 313 314 312 313 316 316 315 313 313 313 312 312 313 313 313 313 313 313 312 312 311 311 311 312 313 312 312 310 306 306 307 306 306 306 307 306 305 304 303 302 301 300 300 299 299 300 300 300 299 299 299 298 298 297 297 297 297 296 296 295 295 295 295 294 292 291 291 291 291 291 292 292 292 292 292 292 292 291 291 291 290 290 290 290 289 289 288 288 289 288
315 315 315 315 313 314 314 315 317 314 313 317 317 314 312 312 312 312 311 312 312 312 312 312 312 312 313 312 313 312 312 313 312 312 312 308 305 304 304 305 305 305 305 304 303 302 301 300 300 300 300 299 299 299 300 299 299 298 298 297 297 297 296 296 296 295 295 295 295 295 294 293 291 291 290 290 291 291 292 292 292 292 291 291 291 291 290 290 290 290 289 289 289 289 288 288 288
315 315 315 314 314 314 314 314 317 315 313 316 315 312 313 313 313 312 311 311 311 312 311 312 312 312 313 312 313 313 313 313 313 312 312 314 312 305 302 304 304 304 304 303 303 302 301 300 299 299 299 299 299 299 299 298 298 297 297 296 296 296 295 295 295 294 295 295 295 295 294 293 293 292 290 290 291 291 291 291 291 291 291 290 290 290 290 290 289 289 289 289 289 289 288 287 288
314 316 316 315 314 314 315 315 315 314 316 316 315 315 315 316 316 314 313 313 313 312 312 312 312 312 312 312 312 312 313 313 313 312 312 316 314 304 301 303 303 303 304 303 303 302 301 300 299 299 299 299 299 298 298 298 297 297 296 296 295 295 294 294 294 294 294 294 294 294 294 293 293 292 291 290 290 290 290 290 290 290 290 290 290 289 289 289 289 288 288 288 288 289 288 287 287
314 319 320 316 315 314 316 315 315 318 320 317 316 317 317 317 317 317 317 316 314 314 314 313 312 312 312 312 312 312 312 312 312 312 312 314 312 307 303 301 301 303 303 303 302 301 300 300 299 299 299 298 298 298 298 297 297 297 296 296 295 295 294 294 294 294 294 294 294 294 294 293 293 292 291 290 290 290 290 289 289 289 289 289 289 289 289 289 288 288 287 288 288 288 288 287 287
316 321 325 322 319 318 318 317 318 320 319 317 318 320 318 316 316 317 317 316 315 314 315 314 312 311 311 312 311 312 312 312 313 314 313 314 312 309 305 301 301 303 302 302 301 300 300 300 299 299 298 298 298 298 297 297 297 297 296 296 296 295 295 294 294 294 294 294 293 293 293 293 293 292 291 290 289 289 289 289 289 289 289 289 289 289 289 288 287 287 287 287 287 288 288 288 287
318 321 322 322 321 321 320 320 321 321 317 316 319 318 318 317 316 318 315 314 315 314 314 314 312 313 312 312 311 311 312 312 313 314 315 315 310 304 302 301 301 302 302 302 301 300 300 300 299 298 298 298 297 298 297 297 297 297 296 296 295 295 295 295 294 293 293 293 293 293 293 293 292 292 291 290 289 289 288 288 288 288 288 288 289 288 288 288 287 287 287 287 287 287 288 288 287
318 318 319 324 327 325 322 320 320 322 320 318 319 318 317 317 316 317 314 313 316 313 313 313 312 314 313 313 313 313 313 313 313 315 316 314 306 302 302 302 301 301 301 301 300 300 299 299 299 298 298 298 297 297 297 297 297 296 296 296 295 295 294 294 294 293 293 293 293 292 292 292 292 292 291 290 289 288 288 288 288 288 288 288 288 288 288 287 287 287 286 286 287 287 287 287 287
314 315 319 325 328 326 327 326 321 320 319 318 322 319 316 317 318 317 315 316 316 312 313 314 312 314 314 314 314 313 314 314 314 317 317 311 302 300 301 300 300 300 300 300 300 300 299 299 298 298 298 297 297 297 297 297 297 296 296 296 295 295 294 294 293 293 292 292 292 292 292 292 292 292 291 290 289 288 287 287 287 287 287 287 288 288 288 287 287 286 286 286 286 286 287 287 286
314 318 321 323 326 325 328 328 322 318 318 320 323 319 315 316 317 317 317 318 318 313 313 315 315 314 313 314 313 313 314 314 314 318 318 311 304 303 301 298 299 299 299 299 299 299 299 298 298 298 297 297 297 297 297 297 296 296 296 296 295 295 294 294 293 293 292 292 292 291 291 291 291 291 291 290 289 288 287 287 287 287 287 287 287 287 287 287 287 286 286 286 286 286 286 286 286
315 320 320 319 322 322 323 325 321 320 320 320 318 316 314 315 317 316 315 317 319 316 314 314 316 318 318 318 316 314 314 313 314 320 322 315 309 307 303 297 296 297 297 298 298 298 298 298 298 298 297 297 297 297 297 296 296 296 296 295 295 295 294 294 293 293 292 292 291 291 290 290 290 290 290 290 289 288 287 287 287 287 287 287 287 287 287 287 286 286 286 286 286 286 286 285 285
315 318 319 319 320 319 321 325 323 319 320 318 314 315 316 316 320 319 314 313 316 317 315 314 315 319 322 320 317 317 316 315 319 326 327 319 310 307 303 297 295 296 297 297 298 298 298 297 298 297 297 297 297 297 296 296 296 296 296 296 295 295 294 294 293 293 292 292 291 291 291 290 290 290 290 290 289 288 287 287 287 287 287 287 287 287 287 286 286 286 286 286 285 285 285 285 285
314 316 320 318 322 325 325 326 323 318 323 321 314 317 321 318 319 321 317 315 317 317 317 314 312 313 316 316 316 317 317 321 327 331 327 317 309 305 300 297 296 296 296 296 297 297 297 297 297 297 297 297 297 296 296 296 296 296 296 295 295 295 294 294 293 293 292 292 292 291 291 290 290 290 290 290 289 288 288 287 287 287 286 286 287 287 287 286 286 286 285 285 285 285 285 285 285
314 318 320 315 320 325 320 321 321 316 321 321 315 320 324 318 316 319 319 318 319 317 315 314 314 315 316 315 316 316 316 325 333 334 327 316 308 303 298 296 297 296 296 296 296 296 297 297 297 297 297 297 296 296 296 296 296 295 295 295 295 294 294 294 293 293 292 292 292 291 291 290 290 290 289 289 289 288 288 287 287 286 286 286 286 286 286 286 286 286 285 285 285 285 285 285 285
314 316 318 315 318 319 315 321 322 315 316 317 316 319 321 317 316 316 314 315 316 316 315 315 316 316 315 314 314 313 315 325 333 330 320 311 307 302 297 296 297 295 296 296 296 297 297 297 297 296 296 296 296 296 296 296 295 295 295 295 295 294 294 294 293 293 292 292 291 291 291 291 290 290 289 289 289 288 288 287 287 286 286 286 286 286 286 286 286 285 285 285 285 285 284 285 285
316 318 317 314 316 318 317 321 322 317 316 318 318 316 315 316 319 315 312 314 315 316 316 315 314 313 313 315 314 312 315 325 333 330 320 311 310 305 297 295 297 296 296 296 296 297 297 297 297 296 296 296 296 296 295 295 295 294 295 294 294 294 294 294 293 293 292 291 291 291 291 290 290 290 289 289 289 288 288 287 286 286 286 286 286 286 286 285 285 285 285 285 284 284 284 284 284
315 317 316 315 318 320 319 319 319 317 317 319 319 316 314 314 317 315 314 317 316 315 316 315 313 313 315 319 319 317 319 325 332 335 330 321 317 309 298 295 296 296 296 296 296 297 296 296 296 296 296 296 296 295 295 295 294 294 294 294 294 294 294 293 293 292 292 291 291 291 290 290 290 289 289 289 288 288 288 287 286 286 285 285 285 285 285 285 285 285 284 284 284 284 284 284 284
312 312 313 315 316 319 320 320 320 318 316 318 318 317 316 317 321 319 315 317 317 315 317 317 317 319 322 323 324 323 324 326 329 333 335 330 320 307 297 296 296 296 297 296 296 296 296 296 296 296 296 295 295 295 295 294 294 294 294 294 294 293 293 293 292 292 291 291 291 290 290 290 289 289 289 289 288 288 287 287 286 286 285 285 285 285 285 285 284 284 284 283 283 283 283 283 283
314 314 315 314 313 318 319 316 318 317 315 316 317 317 316 317 321 320 315 317 318 318 316 315 317 320 322 324 324 326 328 330 334 336 337 336 323 305 296 296 297 296 296 296 296 296 296 296 296 296 295 295 295 295 295 295 294 294 294 293 293 293 293 292 292 291 291 291 291 290 290 289 289 289 289 288 288 288 287 287 286 286 285 285 285 285 284 284 283 283 283 283 283 283 283 283 283
316 314 315 314 313 317 317 316 317 317 315 316 316 317 317 314 315 316 316 316 317 318 315 313 318 322 324 329 330 331 333 333 337 338 337 337 329 311 299 296 297 296 296 296 296 296 295 296 296 296 295 295 295 295 295 295 294 294 293 293 293 293 292 292 291 291 291 291 290 290 289 289 289 288 288 288 288 288 287 287 286 285 285 285 285 285 284 283 283 283 283 282 282 283 283 283 283
Wind_Speed
2 2 0 0 2 3 2 3 2 3 2 1 3 1 4 4 3 2 2 3 1 2 3 1 1 2 2 4 6 6 5 5 5 5 3 4 14 21 21 19 21 23 23 21 19 19 17 15 14 14 14 14 13 13 12 11 11 11 11 11 11 11 11 10 10 10 9 9 9 9 8 8 9 7 6 5 5 6 7 7 7 7 7 6 6 5 5 6 6 5 4 4 4 3 3 2 2
2 1 1 1 3 2 1 3 2 4 4 3 4 3 5 4 1 5 6 5 4 3 1 1 3 5 5 6 6 4 1 1 3 4 2 9 16 17 20 20 22 22 22 21 19 18 17 17 16 15 15 15 14 14 13 12 11 11 11 11 10 10 10 10 10 10 9 9 8 7 6 7 7 6 5 4 4 5 5 6 7 8 7 6 6 5 6 7 7 6 4 3 3 2 2 2 2
1 1 2 0 2 3 1 3 1 1 2 3 5 4 3 2 5 7 7 7 7 2 2 2 2 4 5 4 2 3 2 2 2 3 2 13 14 17 24 21 22 21 21 21 19 18 18 18 17 17 16 16 15 15 14 13 13 12 13 11 11 11 10 10 10 9 8 8 8 8 7 6 6 5 5 4 4 4 5 5 6 7 7 7 6 4 4 5 4 4 2 1 1 1 0 1 1
1 1 3 2 2 3 4 3 1 3 1 3 3 6 3 4 7 6 7 7 6 1 1 2 1 1 4 2 2 3 3 3 5 7 5 17 19 24 28 22 23 20 20 21 19 19 19 20 18 18 17 17 17 16 16 14 14 13 14 13 13 12 11 11 10 9 9 9 9 9 8 8 7 6 5 4 3 4 4 5 5 5 6 6 5 3 3 3 3 2 2 1 1 1 1 2 3
1 1 3 3 2 1 3 1 1 3 4 4 2 6 6 7 7 6 5 6 5 3 3 3 1 2 1 2 3 1 5 2 6 11 9 20 24 27 29 24 25 22 22 21 19 20 19 20 19 19 18 17 17 16 16 15 15 14 15 14 14 14 13 12 11 11 10 10 10 10 10 9 8 7 7 6 4 4 4 4 4 5 5 5 5 4 5 5 3 3 2 2 2 2 2 3 3
1 1 2 4 2 1 2 1 1 2 5 5 2 7 7 7 7 6 4 5 4 3 4 3 2 2 0 1 1 2 5 2 6 11 11 21 26 29 29 26 27 24 23 22 21 20 18 20 19 19 18 18 18 17 16 15 16 16 16 15 15 15 14 13 12 12 12 12 12 12 12 11 10 9 8 6 5 5 5 5 5 5 4 4 5 5 5 5 3 2 2 2 2 3 3 3 3
2 1 2 4 2 2 3 3 4 4 5 6 5 6 8 7 6 5 3 2 2 3 1 2 3 5 1 1 0 3 4 4 7 8 13 23 30 31 29 27 27 25 24 22 21 19 18 18 18 17 17 17 17 17 17 16 17 17 17 17 17 16 16 15 15 14 14 13 12 12 11 11 10 9 8 7 6 5 5 5 4 4 4 4 4 4 4 3 2 2 2 2 3 3 3 3 3
3 1 1 4 1 2 3 3 4 4 5 5 5 6 7 7 6 6 5 3 1 2 1 2 2 3 4 1 1 4 4 8 5 6 16 26 34 33 29 29 27 26 25 23 21 20 19 18 17 16 16 17 17 18 17 17 17 17 17 16 17 16 16 15 14 14 12 12 11 10 10 10 9 9 8 7 7 6 5 5 4 4 5 5 4 4 3 3 3 3 3 3 3 3 3 4 4
3 2 1 3 1 1 1 3 4 4 5 6 6 7 5 6 6 5 6 3 2 3 3 4 4 2 3 1 3 4 4 10 7 9 20 28 36 35 31 31 29 28 26 23 22 21 20 19 19 17 18 18 18 18 18 18 17 16 16 16 16 15 15 14 13 13 12 12 11 11 11 11 10 9 9 8 8 7 7 6 6 6 6 6 6 5 4 4 5 4 5 5 5 5 5 6 6
3 3 1 1 1 2 4 3 3 4 6 6 7 8 5 7 6 4 6 5 3 3 4 3 2 2 2 2 4 2 4 11 11 16 24 30 37 36 34 32 31 29 27 25 23 22 21 21 21 20 21 20 19 19 18 18 17 16 16 15 15 15 15 14 14 13 13 13 12 12 11 11 11 10 10 9 9 9 9 8 8 8 8 8 8 7 7 6 6 6 6 7 7 8 8 8 8
2 3 2 2 2 1 4 4 4 5 6 5 6 7 6 8 6 3 3 3 3 3 2 2 2 3 2 2 4 2 5 14 18 23 27 32 36 36 35 33 31 30 28 26 24 23 23 22 21 21 21 21 20 20 19 18 17 16 16 15 15 14 14 14 14 14 13 13 13 13 12 12 12 11 11 11 11 11 11 10 10 10 9 9 9 8 8 8 7 7 7 7 8 8 8 8 9
2 3 4 3 2 3 4 3 5 6 7 5 5 5 5 7 4 3 5 4 4 3 3 5 4 4 3 4 4 2 7 19 21 24 28 33 35 35 34 33 31 29 28 26 25 24 23 23 22 22 22 21 21 20 19 18 17 16 16 16 15 15 15 14 14 14 14 13 13 13 13 13 13 13 13 13 13 12 12 11 11 10 10 10 10 10 9 9 9 9 8 8 8 7 7 7 8
3 1 5 1 3 3 3 3 5 5 6 4 5 3 5 7 5 7 6 4 4 4 6 8 4 4 3 4 3 2 8 20 22 24 29 34 34 32 31 31 30 28 27 26 26 25 24 24 23 24 23 22 22 21 20 18 17 16 16 16 15 16 15 15 15 14 14 14 14 14 14 14 14 14 13 13 13 12 12 11 11 11 11 11 11 11 11 10 10 10 9 8 8 8 7 7 7
2 2 5 1 1 1 3 3 4 3 5 6 4 2 3 4 5 6 6 3 6 6 5 7 6 2 3 2 3 3 9 21 24 26 30 33 32 29 29 29 29 28 27 26 26 26 25 25 25 25 25 24 23 22 21 19 18 16 16 15 15 15 15 15 15 15 15 15 15 14 14 14 14 14 14 13 12 12 12 12 12 12 11 11 11 11 10 10 9 9 8 8 8 7 7 7 7
2 1 4 1 2 2 3 4 3 2 4 6 3 1 2 3 2 3 6 6 7 5 1 3 5 1 3 4 5 6 13 26 26 28 31 30 28 26 27 29 28 28 27 27 26 26 26 26 26 27 26 26 25 24 22 20 18 17 16 15 15 15 16 16 17 17 16 15 15 14 14 14 14 14 14 13 12 12 11 11 11 11 11 10 10 9 9 8 8 7 7 6 6 6 6 6 6
2 3 4 1 2 2 3 4 1 1 5 6 3 1 1 7 1 2 5 4 3 3 1 4 5 2 4 7 6 6 16 29 28 29 30 27 24 23 26 28 28 28 28 27 27 27 27 27 28 28 27 26 25 24 23 21 19 18 17 16 16 17 17 18 18 18 17 16 15 15 15 15 15 14 14 13 12 12 11 11 10 10 10 9 9 9 8 7 7 7 6 6 6 5 5 5 5
3 4 2 1 2 2 4 4 2 2 5 6 5 1 4 7 3 2 2 2 2 2 2 5 4 2 3 4 4 4 21 31 30 30 28 25 24 23 25 27 28 29 29 29 29 28 28 29 29 29 29 27 26 25 23 22 20 19 18 18 18 18 19 19 19 18 17 17 17 17 17 17 16 15 15 14 13 12 11 11 10 10 9 9 9 9 8 8 8 7 7 7 7 7 7 6 7
3 3 2 3 3 4 5 6 5 3 3 5 4 4 7 5 4 1 2 2 3 3 4 4 5 2 1 1 3 13 27 33 32 31 27 24 23 23 24 28 30 31 32 32 31 31 31 32 32 31 31 29 27 26 25 23 22 21 20 20 20 20 20 20 19 19 19 19 19 19 19 18 18 17 15 14 13 12 11 11 10 10 9 9 9 9 9 9 9 9 9 9 9 9 8 8 8
2 3 2 4 6 6 5 6 4 3 4 6 5 4 6 7 4 1 2 6 5 5 6 3 6 7 1 3 11 21 29 32 32 31 28 26 26 26 25 28 31 32 34 35 35 34 33 34 34 34 33 31 30 28 26 25 24 23 22 22 21 21 21 21 21 21 21 22 22 21 20 19 18 17 15 14 13 13 12 11 11 10 10 9 9 10 10 10 9 9 9 9 9 9 8 9 9
2 3 2 7 7 6 5 6 7 6 5 4 6 3 4 7 3 2 3 8 8 8 8 4 7 12 7 4 11 20 25 28 30 29 28 28 30 30 29 30 32 35 39 40 39 37 36 36 36 36 35 33 32 30 29 27 26 25 24 24 24 23 23 22 23 23 24 23 23 22 21 19 18 16 15 14 13 12 12 12 11 11 10 10 9 9 9 9 9 9 9 8 8 8 8 8 8
2 4 5 7 5 4 8 8 9 7 5 4 3 1 3 6 3 3 3 5 11 10 9 10 11 14 9 7 10 17 20 22 25 26 26 27 29 30 32 35 37 38 38 37 38 39 38 38 38 38 37 35 34 33 31 30 28 27 27 26 26 26 25 25 25 26 25 24 24 22 19 18 17 16 14 13 12 12 12 12 12 11 10 10 9 8 9 9 9 9 8 8 8 8 8 8 8
1 5 8 7 4 4 9 7 7 6 3 3 2 3 5 3 2 4 6 7 14 7 7 12 13 13 10 11 12 14 15 17 21 23 25 27 29 31 32 34 34 33 33 36 39 41 41 39 39 39 38 37 36 35 33 31 31 30 29 29 29 28 28 27 27 27 25 23 22 21 19 18 17 17 15 14 13 13 13 12 11 10 9 9 9 8 8 8 8 9 9 8 8 8 8 7 7
3 6 6 7 6 7 8 4 4 2 1 5 4 4 2 2 5 5 8 14 18 8 7 11 13 14 11 12 13 13 14 15 18 24 28 29 31 33 35 34 34 34 36 39 41 41 41 41 40 40 40 39 38 36 34 33 32 32 30 30 30 30 29 29 28 27 24 22 22 21 21 20 19 18 16 15 15 14 13 12 11 9 8 7 7 7 7 8 8 8 8 8 8 7 7 7 6
5 6 5 7 8 9 10 6 5 3 5 8 3 4 3 6 8 2 7 19 21 11 5 8 10 11 8 10 13 15 17 18 22 31 35 36 38 41 40 37 37 36 36 38 39 40 42 43 42 41 41 40 39 37 36 35 34 32 31 31 30 30 30 30 29 27 25 24 23 23 22 21 20 19 18 17 16 15 13 12 10 9 8 7 6 6 6 7 7 7 8 7 7 6 6 6 6
6 7 5 5 5 8 9 6 7 7 7 6 3 8 8 10 5 4 15 24 19 9 7 9 8 6 7 10 14 15 15 18 23 29 32 36 37 37 35 34 33 32 36 39 38 40 43 43 43 43 42 42 40 39 38 36 35 33 32 32 31 31 30 30 29 28 27 26 26 25 24 22 21 20 19 18 17 16 14 12 11 9 8 7 6 5 5 6 6 6 7 7 7 6 6 6 6
7 7 5 4 6 8 7 7 9 7 5 3 4 13 12 7 3 8 22 25 15 7 9 11 8 8 9 10 13 14 15 16 20 25 30 33 30 28 31 32 32 35 40 39 39 41 43 43 44 45 44 43 42 40 39 38 36 35 34 33 32 31 31 30 29 29 28 28 28 27 25 23 21 21 20 19 18 17 15 13 12 10 8 7 6 5 5 5 5 6 6 7 7 6 6 6 6
4 4 6 7 8 9 6 7 9 4 4 6 7 16 13 4 2 9 21 15 5 6 9 9 8 10 12 11 11 12 13 18 24 25 24 24 25 29 32 32 35 40 38 37 41 42 41 43 46 46 45 44 43 42 41 39 38 37 35 34 33 32 31 30 30 30 30 30 29 27 26 23 22 21 20 20 19 17 16 14 13 11 9 8 6 4 4 4 5 5 6 6 6 6 6 6 6
2 2 7 10 7 9 10 9 8 2 4 8 10 14 10 1 4 13 22 10 2 4 8 7 8 11 11 11 11 9 11 20 25 21 18 22 28 33 33 36 41 39 38 41 43 41 40 43 45 46 45 44 43 43 42 40 39 37 36 35 34 33 32 32 32 31 31 31 29 28 26 24 23 22 21 20 19 18 16 15 14 11 10 8 6 4 4 4 4 5 5 5 6 6 5 5 6
2 2 6 14 7 10 17 10 6 5 4 6 8 7 7 4 11 19 22 11 2 6 10 10 9 10 10 10 10 8 11 17 18 18 24 31 35 36 37 42 43 39 41 43 40 39 41 43 45 45 45 44 44 44 43 41 40 38 37 36 35 34 33 33 33 32 31 31 30 28 27 25 24 23 22 20 19 18 17 16 14 12 10 8 6 5 4 3 4 4 4 4 5 5 4 4 5
4 2 1 10 7 10 14 2 2 5 4 6 8 4 9 9 16 20 17 10 5 8 12 13 11 10 9 9 9 9 12 13 14 23 32 35 36 36 39 42 41 41 41 38 37 41 43 43 44 44 45 46 45 44 43 42 40 39 38 37 36 35 34 34 33 33 32 31 30 29 28 26 25 24 22 21 20 19 18 17 15 13 11 9 7 5 4 3 3 2 3 3 3 4 4 5 6
3 1 1 3 2 10 10 4 5 3 3 7 8 4 11 12 15 16 12 7 6 9 14 14 13 10 9 9 9 11 11 13 20 29 33 36 36 35 38 39 38 40 38 37 42 44 43 43 43 44 45 46 45 44 44 43 41 40 39 38 37 36 35 34 34 33 32 31 31 30 29 27 26 25 23 22 22 20 19 17 16 14 12 10 8 6 4 3 1 1 2 2 3 3 4 5 7
1 1 4 2 4 9 12 3 6 7 4 5 7 4 10 14 15 13 7 5 8 10 14 13 13 12 10 9 9 11 12 13 21 27 31 36 36 34 37 38 38 39 40 42 44 42 41 43 43 44 45 46 46 45 44 43 42 41 40 39 38 37 36 35 34 33 32 32 32 31 30 28 27 26 24 23 22 21 20 18 16 14 12 10 8 7 5 2 1 1 2 2 3 3 3 5 7
2 3 6 5 5 4 8 8 6 9 3 3 7 6 7 11 13 10 4 5 9 9 12 13 13 13 11 10 9 10 11 12 15 20 29 34 35 37 39 40 40 41 43 44 42 41 42 43 44 45 46 47 47 45 44 43 42 42 41 39 38 37 37 36 35 33 33 33 33 32 31 30 28 27 26 24 23 22 20 18 17 15 13 11 9 7 5 3 1 1 1 2 3 3 4 6 7
4 2 5 6 6 4 3 9 6 5 6 6 10 9 11 14 14 11 5 5 7 7 11 13 12 11 9 9 10 11 11 13 13 17 27 31 33 38 39 40 41 41 42 42 43 43 44 44 45 45 46 46 46 45 44 43 42 41 40 39 38 37 37 36 35 34 34 33 33 33 32 31 29 28 27 25 24 22 20 19 17 15 13 11 9 7 5 4 2 1 1 2 2 4 5 6 9
6 4 4 4 5 6 7 9 4 2 5 8 8 10 15 18 16 15 11 6 6 9 11 11 11 11 10 10 11 12 12 13 16 20 24 25 29 34 37 38 38 39 40 41 42 42 42 43 44 44 44 44 44 43 42 41 40 39 38 38 37 37 37 36 36 35 35 34 34 33 33 32 30 29 28 26 24 23 21 19 18 16 14 12 11 9 7 5 3 2 1 1 1 3 4 7 9
9 6 5 4 6 7 8 12 8 3 6 8 10 13 15 17 18 18 16 11 11 13 11 10 12 12 11 11 12 14 15 15 19 22 21 21 26 31 35 36 37 39 39 39 40 40 40 41 41 42 42 42 42 40 40 39 37 37 37 37 37 38 38 38 37 37 36 36 35 34 34 33 31 30 29 27 25 24 22 21 19 17 15 13 12 10 8 6 5 4 3 2 2 1 2 6 8
7 5 6 7 8 9 10 14 11 5 5 9 12 16 17 16 18 18 15 11 11 14 14 14 14 13 13 14 16 17 17 17 19 20 17 20 26 28 32 35 35 35 35 37 38 40 42 42 42 42 41 42 43 42 42 41 40 38 38 39 41 41 40 40 39 39 38 37 36 34 34 34 32 30 29 28 26 25 23 21 20 18 16 14 12 10 9 8 7 6 5 4 2 1 1 4 7
9 7 8 9 8 12 13 13 14 5 5 9 11 15 18 16 16 15 13 12 13 15 16 17 17 14 12 14 18 19 16 16 17 16 13 17 22 25 29 31 32 34 36 38 40 42 42 42 43 43 43 44 45 46 46 45 45 44 43 43 43 42 42 42 41 41 40 38 37 35 35 34 32 31 29 28 27 25 24 22 21 20 17 15 13 12 11 10 9 7 6 5 3 0 2 3 6
8 6 7 8 7 11 12 11 14 6 4 8 11 14 16 14 15 14 13 14 16 16 17 18 17 13 13 14 17 18 16 17 19 16 11 13 18 23 25 28 33 36 37 39 40 41 41 42 43 43 44 46 47 47 48 47 46 45 43 42 42 40 40 41 40 40 39 38 37 35 35 35 33 32 31 29 28 26 25 24 22 20 18 17 15 14 13 11 10 8 7 5 3 2 3 4 5
7 6 6 8 7 8 9 7 8 5 3 6 9 12 13 11 12 12 14 17 17 16 17 16 14 13 16 17 16 16 18 18 19 17 11 9 13 17 22 26 31 32 32 35 37 38 41 42 43 44 45 47 47 47 47 46 43 41 38 36 38 37 35 37 36 35 37 37 36 36 35 35 34 33 32 30 29 28 26 25 23 21 19 17 16 14 13 11 10 8 7 6 4 2 3 4 3
9 9 7 11 12 12 12 7 6 6 5 5 7 12 12 9 12 12 12 15 15 14 15 15 14 15 16 17 17 17 19 20 17 17 13 7 9 14 20 25 28 29 32 37 39 41 42 42 43 44 45 46 46 46 45 43 40 38 34 30 30 31 29 31 32 34 36 38 38 39 38 37 35 33 32 31 30 29 27 25 23 21 20 18 16 14 12 10 9 9 7 6 5 2 2 4 3
9 8 13 18 17 14 14 9 8 6 6 3 2 9 10 6 10 11 8 9 11 10 12 15 16 16 14 15 18 18 19 19 15 16 15 8 8 11 17 22 25 29 33 37 40 41 40 40 42 42 43 43 43 44 44 42 41 40 37 33 32 31 28 32 38 39 40 41 42 41 39 38 36 35 34 33 32 30 28 26 24 22 20 19 17 14 12 11 11 9 8 7 5 3 1 3 3
10 7 14 18 14 11 11 9 4 3 6 3 3 2 10 5 5 8 8 9 11 10 11 15 16 14 12 14 17 16 16 15 12 13 13 8 8 9 13 21 26 29 31 33 34 36 37 38 41 42 42 42 42 43 43 43 42 42 42 41 39 37 35 37 41 41 41 43 41 40 40 39 37 36 35 34 32 31 29 27 25 23 21 19 17 16 14 13 11 10 9 8 6 4 2 1 2
8 4 10 12 10 8 7 5 5 4 4 4 3 4 8 12 6 10 13 12 12 12 13 15 15 14 14 15 15 15 15 13 10 11 11 8 9 10 13 20 26 27 27 30 32 35 37 38 41 41 41 41 42 43 44 45 44 44 43 41 40 41 40 38 38 37 38 40 40 40 40 39 38 37 36 34 33 31 30 28 27 25 23 21 19 17 15 14 13 13 11 9 8 5 3 0 0
7 3 6 6 6 6 5 5 4 1 5 5 4 6 3 14 7 8 11 11 10 13 17 17 15 15 15 15 14 15 15 13 9 10 10 8 8 12 17 20 24 26 27 31 34 35 37 38 39 40 40 40 41 43 45 45 45 44 43 41 39 39 38 34 33 35 36 38 40 40 40 40 40 38 36 35 33 32 31 29 28 26 24 22 20 18 16 16 15 14 12 11 9 6 3 2 1
4 5 4 4 3 2 5 3 2 2 5 6 5 6 3 13 7 4 4 6 9 13 14 14 14 14 14 12 12 14 13 13 10 8 8 8 9 14 17 18 22 25 27 30 32 33 35 36 38 39 39 40 41 43 45 46 45 44 43 43 41 38 34 31 31 33 35 37 39 40 41 42 41 40 38 36 34 33 31 30 29 27 25 23 21 20 19 18 16 15 13 12 10 7 4 2 2
1 5 4 6 5 5 4 1 4 2 8 6 9 11 7 8 6 4 4 5 7 9 8 10 11 12 12 11 11 13 12 12 10 7 6 6 8 12 15 17 20 23 24 27 30 33 35 36 38 39 39 40 41 43 45 47 46 45 45 46 43 40 36 34 33 35 36 38 40 40 41 42 43 43 41 38 36 34 33 31 30 28 26 24 22 21 20 19 17 16 14 13 11 8 5 4 3
3 3 3 4 5 4 5 4 4 1 9 6 11 12 10 8 6 3 5 5 4 6 9 10 12 12 13 11 10 12 12 11 9 6 4 4 5 9 12 14 18 21 24 28 31 34 36 37 38 39 39 41 42 44 46 47 47 47 47 46 44 42 39 38 38 39 39 41 41 39 39 40 42 43 43 42 40 37 35 33 31 29 27 25 24 22 20 19 17 17 15 14 12 9 7 6 5
4 4 3 0 4 3 3 4 0 4 8 6 8 7 6 10 8 5 9 10 7 9 10 12 12 12 12 11 10 10 10 8 7 6 4 5 6 8 9 12 17 22 26 30 32 34 36 37 39 40 41 43 43 44 47 47 48 49 47 45 44 41 40 41 41 40 41 42 41 40 40 41 41 43 45 45 44 41 39 36 34 32 30 28 25 23 21 20 19 18 16 14 12 10 8 7 6
6 5 5 5 3 2 3 4 3 5 7 4 4 5 5 7 5 9 14 14 10 9 10 12 11 10 10 10 8 9 10 6 4 6 6 6 8 8 9 12 17 21 26 29 32 35 36 37 40 42 42 43 44 45 47 48 50 51 49 47 45 42 42 43 42 41 41 42 42 42 44 44 44 46 47 47 47 44 41 39 36 34 31 29 26 24 23 22 20 18 17 15 12 10 9 8 7
6 5 5 5 6 5 4 4 6 7 5 4 1 4 5 4 3 9 12 9 6 5 8 8 8 8 9 8 8 10 11 5 4 6 7 7 8 8 9 13 17 21 24 28 31 33 34 36 40 42 42 44 46 46 47 49 51 51 49 47 46 45 44 43 43 42 42 42 43 43 44 45 45 45 45 46 46 45 43 41 38 35 32 30 27 26 25 23 22 20 17 15 13 12 11 9 8
3 3 4 5 6 6 4 6 6 4 3 4 3 4 6 5 6 7 7 8 7 6 7 6 8 10 9 9 11 11 10 5 3 6 7 7 7 7 9 13 17 19 23 27 29 32 35 37 40 43 43 44 45 46 48 51 50 48 47 48 47 45 44 43 43 43 42 43 44 44 44 44 44 43 43 44 45 45 44 42 39 37 34 31 29 28 27 25 23 21 19 17 15 14 12 11 10
2 3 3 5 5 6 4 6 2 0 4 5 4 7 6 4 8 8 5 8 9 8 8 8 11 11 8 9 10 9 8 7 5 5 6 6 6 6 9 14 17 20 24 29 33 37 40 40 40 42 41 41 43 47 48 48 47 46 47 48 47 47 46 46 45 44 43 42 42 43 43 43 43 43 43 44 44 45 45 43 41 38 35 33 31 30 28 27 25 22 20 18 16 16 14 12 11
5 3 6 3 2 2 3 2 2 2 8 5 5 13 9 4 8 5 3 5 8 8 8 7 8 9 7 7 8 7 7 6 7 7 6 6 6 7 10 15 19 22 25 30 34 38 39 39 38 39 39 42 46 48 47 46 45 45 47 48 48 49 49 48 46 44 42 41 41 43 42 42 43 42 42 43 44 44 45 43 42 39 36 34 33 31 30 28 25 23 21 19 18 17 16 14 13
5 3 2 3 1 3 2 3 3 6 10 5 7 15 11 6 8 5 4 8 11 9 7 5 7 8 6 6 8 8 7 6 8 7 7 7 8 9 10 14 18 23 27 29 31 32 32 34 35 35 38 41 42 41 42 43 44 45 46 47 48 49 48 47 46 43 41 42 43 43 42 43 42 42 42 42 43 44 44 43 42 40 38 36 34 33 31 29 27 24 23 21 20 19 16 14 13
1 2 3 1 3 4 3 3 3 5 9 7 8 10 8 6 6 5 9 11 10 8 5 5 7 7 6 6 7 7 6 7 7 7 7 8 8 9 12 16 20 23 26 26 26 28 31 32 32 34 37 37 37 39 41 43 44 45 45 44 45 47 47 46 44 43 43 44 44 43 43 42 42 42 42 42 43 43 44 44 42 41 40 38 36 35 33 30 28 26 24 22 21 19 16 14 14
2 3 3 3 3 2 1 3 2 3 7 7 7 8 7 6 4 5 10 9 8 8 5 6 7 6 6 7 7 7 6 6 7 7 8 8 8 8 11 15 18 19 21 23 26 29 31 32 34 36 36 36 37 40 43 45 46 46 44 44 45 46 46 44 43 43 44 44 43 43 43 42 42 43 43 43 44 44 44 44 43 42 41 40 39 37 34 31 29 27 25 22 21 19 17 16 15
5 6 7 7 7 5 4 7 5 3 5 5 7 8 6 7 5 4 6 7 6 6 6 7 8 8 8 7 6 6 5 7 8 8 7 7 7 7 7 11 14 17 20 23 26 28 30 33 37 38 37 37 41 42 44 46 46 45 46 46 45 44 43 43 43 43 44 44 43 42 42 42 42 43 44 44 45 44 44 44 43 42 41 41 40 38 35 33 31 28 26 24 22 21 19 18 17
Wind_Direction
173 154 87 335 348 10 8 62 63 316 74 292 273 224 262 232 205 185 231 248 239 252 234 292 78 94 96 135 162 164 149 161 168 148 215 199 146 162 175 175 176 176 174 175 178 179 182 180 180 181 181 179 176 163 150 151 150 147 145 144 142 139 138 134 135 140 142 135 128 125 126 122 113 112 111 114 115 108 122 120 105 104 105 102 96 88 92 100 101 101 102 101 96 87 79 63 26
157 142 8 308 5 30 276 78 89 325 37 320 283 190 253 285 219 202 209 216 220 215 193 161 87 62 69 91 121 128 138 232 169 152 212 151 145 169 181 182 180 178 178 177 180 182 185 185 184 184 186 184 180 168 154 154 155 152 153 149 146 143 142 140 140 147 146 135 128 127 128 120 112 119 120 123 133 123 129 130 113 103 102 102 96 98 111 107 101 103 107 109 95 82 87 76 55
127 114 30 71 33 46 53 45 89 24 35 285 277 245 262 277 227 222 220 223 230 190 95 185 108 65 81 69 113 127 199 263 153 136 119 159 162 176 179 184 181 181 183 181 181 183 184 182 181 180 182 181 175 165 154 156 157 154 154 151 149 143 140 142 140 142 140 132 128 126 120 112 112 114 119 128 141 138 137 138 127 114 111 115 108 105 120 111 101 102 97 89 89 85 95 24 353
92 41 15 56 59 25 63 44 146 130 226 242 267 272 261 222 222 232 237 236 239 223 87 182 143 126 114 153 187 95 204 250 184 159 150 185 184 173 174 179 181 185 185 184 183 182 183 178 175 174 177 174 167 159 154 157 158 154 151 151 152 146 142 142 139 136 132 131 124 119 113 109 110 108 113 116 133 147 141 142 142 133 128 130 124 103 85 83 83 79 59 34 3 360 329 317 319
36 10 1 48 91 30 96 72 117 127 220 201 233 273 253 222 211 220 246 260 249 233 201 149 133 238 111 183 176 139 205 233 191 177 174 192 182 169 174 179 182 185 184 184 181 180 180 176 172 172 173 168 161 156 155 156 156 153 148 149 150 147 144 141 136 133 129 126 120 118 117 115 114 110 108 108 134 159 157 153 152 151 143 132 119 93 72 64 57 55 48 29 353 341 323 316 316
351 88 17 45 101 130 112 222 205 221 230 182 215 265 258 230 204 203 238 280 272 246 197 162 168 169 304 235 175 195 194 137 168 191 196 184 174 170 177 181 183 184 184 184 182 183 181 177 174 173 171 164 159 156 156 155 154 152 150 149 148 147 144 141 137 134 132 129 128 129 127 127 127 124 124 134 156 161 161 161 160 161 159 147 126 103 80 68 57 42 15 358 344 331 323 318 320
20 70 13 54 51 44 114 205 214 239 240 187 198 251 257 231 197 180 194 238 285 300 226 204 151 118 226 245 173 209 191 169 156 198 200 174 168 173 179 183 184 184 184 184 187 190 187 182 176 171 169 164 160 158 155 154 154 153 152 152 150 149 147 146 144 143 143 143 145 146 144 145 147 150 157 167 170 164 162 159 157 156 154 156 146 129 102 82 53 30 5 356 351 346 344 341 339
33 53 21 89 50 9 115 236 234 215 244 221 212 240 242 209 181 169 185 199 208 254 232 252 172 117 253 215 188 227 187 188 183 203 184 169 168 173 181 184 184 184 184 186 189 194 192 186 177 170 167 164 162 160 160 159 161 160 160 161 160 160 159 160 159 159 161 163 166 166 166 167 170 174 176 175 173 171 167 159 150 144 140 140 140 138 119 89 62 45 35 27 23 26 30 29 23
29 44 42 92 143 332 7 280 263 229 248 255 248 249 233 183 177 169 181 240 265 208 220 224 180 166 248 202 231 259 211 202 203 182 173 170 171 175 183 187 188 185 183 187 192 196 194 189 180 176 174 172 171 170 172 171 173 173 173 175 174 174 174 175 175 177 177 176 176 175 176 176 178 177 175 172 169 165 160 155 145 135 130 127 124 124 113 95 79 69 65 61 59 56 57 55 52
28 33 94 87 110 306 309 274 255 257 246 250 256 245 211 166 183 192 178 230 227 177 238 217 176 219 190 200 239 272 216 201 181 170 173 174 173 178 185 189 193 189 186 188 195 198 194 190 185 184 184 181 179 178 179 178 179 179 180 181 181 181 181 182 181 182 179 177 176 174 174 172 172 171 168 164 159 156 150 144 137 129 123 120 117 114 108 98 86 80 75 70 68 64 64 61 59
30 352 91 88 71 239 262 255 257 265 270 294 284 245 199 166 170 216 195 231 213 165 219 145 223 218 152 251 250 271 185 182 177 172 173 175 176 181 186 190 195 195 192 191 195 197 193 191 188 189 187 185 183 182 181 180 181 181 183 184 184 184 183 183 181 180 177 174 171 167 166 163 162 159 155 152 149 144 140 135 130 126 121 118 114 112 107 101 95 90 85 81 76 70 66 62 61
81 328 63 104 168 209 222 240 267 273 296 311 278 251 177 157 151 217 212 224 206 188 221 185 193 166 140 276 262 305 175 179 182 175 173 175 178 183 189 192 194 198 197 195 194 193 193 191 190 191 189 187 186 184 183 181 184 185 186 186 185 185 183 182 180 177 174 170 165 160 158 156 154 151 147 144 141 137 134 131 128 126 124 121 116 115 111 107 102 98 95 91 87 81 75 67 61
120 154 84 143 194 186 222 238 273 297 310 271 239 248 143 152 199 215 192 210 184 172 239 209 163 133 183 260 267 303 190 186 181 174 174 175 178 183 190 192 193 197 198 198 196 194 195 194 193 193 191 190 189 187 185 185 187 188 189 188 186 184 181 180 179 176 172 168 164 160 157 154 150 147 144 142 140 138 136 134 132 130 127 124 121 117 114 110 105 102 98 93 90 86 81 72 65
148 154 115 211 253 177 223 251 281 293 289 258 249 252 153 177 219 196 155 203 217 187 236 201 145 117 223 264 284 276 205 190 178 174 174 174 180 185 191 192 193 195 198 202 201 199 198 196 196 194 193 192 192 189 186 188 189 192 194 191 187 185 182 180 179 176 173 169 165 162 158 154 151 148 145 144 143 142 141 140 136 133 131 128 124 120 117 113 108 104 98 92 87 84 81 76 71
174 127 101 134 312 316 224 229 244 205 260 257 257 248 204 258 186 159 179 204 242 216 205 178 156 185 204 182 231 256 199 185 175 173 173 175 182 187 191 192 193 196 199 203 204 205 201 199 198 196 196 195 194 191 188 190 192 195 196 194 192 188 184 181 180 177 175 172 167 163 159 154 152 150 149 148 146 145 143 141 138 137 136 133 130 127 124 120 115 111 103 97 89 85 79 74 72
141 104 77 13 260 290 231 219 224 198 257 245 268 27 204 278 209 175 223 181 258 255 146 195 192 200 178 179 230 254 183 176 172 172 173 176 182 186 190 191 195 198 200 204 206 207 205 201 199 198 198 197 197 194 191 191 194 198 197 197 195 191 187 183 182 180 177 174 170 165 162 159 156 155 155 154 153 152 148 145 141 140 138 135 132 128 127 123 117 112 106 101 93 87 77 73 69
65 87 88 289 216 222 215 210 220 220 264 266 295 304 185 281 288 205 257 147 222 248 222 225 224 192 177 211 257 178 164 168 168 170 172 175 178 179 185 190 193 196 200 204 207 208 206 203 202 201 200 200 200 197 195 194 195 199 200 199 197 194 189 185 185 182 180 178 175 169 165 164 162 162 161 162 162 160 155 149 142 137 132 127 122 117 114 109 105 99 94 91 85 81 74 71 67
66 101 153 233 204 211 197 198 206 175 266 265 266 224 188 252 277 259 332 282 254 248 257 261 269 278 88 254 160 150 158 164 167 170 171 174 176 177 183 188 192 196 199 202 207 208 207 205 204 203 202 201 201 200 199 197 197 200 202 201 198 196 191 188 187 184 184 182 177 172 169 167 165 165 164 164 164 160 154 146 138 129 122 114 110 107 102 97 94 89 84 79 76 73 67 64 62
137 134 176 230 206 217 203 202 216 187 255 258 261 241 193 225 240 80 269 263 271 254 261 269 265 270 330 99 139 152 158 163 169 172 174 178 181 185 188 191 194 198 200 202 206 208 208 207 205 205 204 202 202 202 201 200 199 200 203 202 200 198 194 191 189 188 189 185 179 175 171 168 165 164 163 163 161 155 148 139 130 123 116 108 104 100 96 92 87 81 76 70 66 61 56 55 53
183 143 210 242 216 235 245 229 240 237 240 250 269 247 190 236 230 129 237 268 269 239 239 221 240 250 230 154 149 157 161 167 175 178 182 187 190 191 192 193 197 201 203 205 206 206 208 207 206 206 205 205 203 203 202 201 200 201 202 202 201 198 196 195 193 193 192 186 181 177 173 167 165 164 163 159 154 148 140 133 127 122 116 108 101 96 90 84 77 70 65 57 52 47 43 43 44
189 162 209 240 200 234 255 239 245 244 224 215 238 294 261 253 200 185 214 287 275 241 220 212 223 239 214 173 175 170 169 176 182 187 190 194 197 199 200 200 202 205 206 206 206 206 207 207 207 206 206 207 205 204 203 202 201 200 200 200 201 199 198 196 196 196 193 187 182 178 173 167 166 164 161 156 149 145 139 136 131 125 119 109 101 95 86 78 70 62 55 49 43 38 34 33 34
178 218 224 240 187 233 257 240 243 233 215 246 249 275 267 250 178 209 197 239 265 242 195 212 221 233 206 176 184 178 179 186 189 196 199 200 202 204 207 207 207 207 207 207 208 208 208 208 208 206 206 207 207 206 205 203 202 201 200 199 199 198 198 196 196 196 192 187 182 177 173 171 169 164 162 158 152 150 147 143 136 128 122 111 102 92 82 74 64 58 53 48 45 40 36 31 29
227 256 240 245 220 239 262 254 256 223 224 266 255 260 266 310 279 230 203 232 253 244 173 202 221 229 207 170 172 181 191 194 196 201 202 204 206 207 209 208 208 208 208 210 210 209 209 208 208 208 207 206 207 207 206 205 203 203 202 200 199 198 196 195 196 195 190 187 186 182 178 177 173 167 165 163 160 159 156 150 142 133 126 113 100 87 77 70 60 56 54 52 52 47 43 39 32
220 259 255 250 230 235 257 269 287 285 248 252 277 311 272 257 272 273 241 247 253 253 201 207 225 229 194 161 177 189 196 199 204 206 205 207 209 211 211 209 210 209 209 211 210 209 210 209 207 208 208 207 207 206 206 206 205 204 203 201 201 199 196 195 196 194 189 188 191 188 185 183 177 172 170 168 166 165 162 156 150 142 134 119 104 91 77 69 63 59 55 53 53 50 49 46 36
215 242 254 260 245 244 262 274 278 273 256 251 295 288 247 229 266 315 266 263 265 248 226 232 229 222 185 181 195 196 202 206 211 212 212 215 215 216 215 212 211 210 212 213 210 210 211 209 207 208 209 208 207 206 206 206 206 204 203 202 201 200 198 196 195 193 190 189 192 192 190 187 182 177 175 173 171 169 166 161 156 152 143 128 114 101 86 73 65 57 53 52 50 50 51 47 41
217 228 256 274 278 277 279 275 266 264 254 198 248 270 255 227 269 288 262 265 275 236 223 237 220 222 214 205 204 199 207 211 215 217 218 221 220 220 220 215 212 213 216 215 212 212 211 208 208 209 209 209 208 207 207 206 206 204 203 203 202 201 199 197 195 194 193 191 192 193 193 191 187 182 180 177 175 175 169 165 161 156 151 139 128 113 94 75 61 53 46 47 46 44 42 42 41
214 229 273 266 274 284 263 253 265 274 252 194 214 263 268 239 196 266 265 266 272 221 233 241 222 231 231 223 219 208 211 216 217 217 219 222 219 222 221 215 215 217 217 215 215 214 210 208 209 209 208 209 208 207 208 207 207 206 205 204 203 202 200 197 195 196 195 194 194 195 195 193 190 186 184 181 179 179 173 168 166 162 158 148 137 123 100 73 57 48 39 41 41 39 35 35 32
259 295 310 285 292 295 265 252 261 263 256 205 195 257 278 6 195 242 260 269 81 233 257 255 234 241 240 233 232 218 218 224 221 215 215 218 218 220 218 216 217 217 216 217 218 214 210 209 209 208 207 208 208 208 208 208 208 207 206 205 204 204 202 199 197 198 198 196 197 198 197 195 192 190 187 186 183 182 178 172 170 167 164 156 146 131 103 76 57 44 40 40 38 39 35 29 24
295 35 329 293 328 309 277 268 240 187 231 194 155 269 280 205 227 239 252 263 334 291 278 267 246 244 247 243 238 227 230 229 220 216 220 221 221 220 219 221 219 215 218 219 217 214 213 211 209 208 207 207 208 209 209 209 209 207 207 206 205 205 203 202 201 200 199 199 199 200 200 197 194 193 190 189 187 186 183 177 175 172 169 163 154 139 113 89 67 53 47 40 37 37 23 16 15
289 44 339 289 340 303 277 294 166 183 206 174 134 276 269 230 236 244 254 262 282 281 273 270 262 252 249 247 244 239 236 229 219 221 225 226 226 222 223 225 220 218 219 216 215 216 216 212 209 207 206 207 208 208 209 210 210 208 208 208 207 206 205 205 204 202 201 201 201 201 202 199 196 196 193 191 190 189 185 181 179 177 173 168 159 147 128 108 83 64 42 26 20 14 1 355 352
289 314 229 282 311 272 279 78 121 203 215 170 143 239 264 262 251 247 256 249 229 252 262 265 267 264 256 250 247 248 242 229 228 229 228 229 228 225 226 227 222 220 217 214 217 218 215 211 209 207 206 207 208 208 209 210 211 209 208 208 207 208 207 208 207 205 203 202 203 203 203 201 198 197 197 195 193 192 189 184 181 179 175 169 163 155 146 137 119 47 4 3 358 358 354 345 341
3 238 265 271 196 261 296 312 176 216 251 159 152 222 260 269 265 255 252 211 195 233 254 260 266 267 263 260 251 251 252 240 238 237 234 232 230 226 226 227 223 219 217 216 218 215 212 210 208 206 205 206 206 208 209 210 211 210 208 209 209 209 209 209 210 208 205 204 205 205 204 203 200 200 199 198 197 195 191 187 183 181 176 172 169 164 162 166 159 336 340 348 345 347 344 340 337
310 206 244 254 216 256 308 299 227 205 213 176 202 229 259 266 266 267 259 200 194 224 253 259 263 266 264 266 260 255 259 256 248 242 238 233 229 228 226 226 224 221 220 217 215 212 210 209 207 206 206 206 206 206 207 208 209 209 208 208 209 209 209 210 210 210 208 206 206 207 207 205 202 202 200 199 200 197 193 188 184 182 179 177 175 174 176 176 176 332 348 340 337 346 342 338 335
270 195 232 249 233 226 277 294 287 182 173 211 226 230 246 257 263 270 261 190 187 217 251 260 261 268 269 267 266 261 259 259 255 246 240 233 228 228 227 227 226 223 221 217 215 213 210 207 205 205 206 205 203 203 204 205 207 208 208 208 209 209 210 212 212 212 211 209 209 209 209 207 204 202 202 200 199 198 194 190 188 185 183 183 182 181 180 177 180 186 302 326 332 344 343 339 335
236 209 226 255 243 233 242 266 279 158 210 221 228 238 244 256 266 270 264 234 232 241 247 261 265 266 267 266 267 264 260 259 256 251 246 237 229 227 226 226 225 223 220 217 215 213 209 205 203 203 202 201 200 200 201 202 203 204 205 205 208 209 210 212 213 214 214 212 211 210 210 209 205 202 202 201 199 198 194 191 191 189 188 187 185 185 181 179 181 186 220 260 300 336 344 339 334
237 228 221 234 247 244 241 253 249 214 252 237 230 246 246 253 259 262 266 259 258 261 257 261 264 263 263 262 264 264 263 260 258 257 251 239 232 227 225 223 223 222 219 215 211 209 206 202 199 199 199 197 194 195 196 196 197 199 200 201 204 208 210 211 214 216 215 215 213 212 212 211 207 203 202 202 201 199 197 194 194 192 192 190 189 187 179 178 181 189 206 212 247 311 345 333 333
258 258 248 243 251 263 255 264 265 203 229 246 232 247 252 250 254 256 263 266 260 262 262 259 257 257 258 258 260 262 262 260 263 265 252 237 232 226 224 220 217 217 215 211 207 205 204 200 196 195 195 193 191 191 192 193 194 194 196 200 203 206 208 210 213 215 216 216 215 214 213 213 210 205 203 203 202 201 199 196 196 195 194 192 190 185 179 180 183 190 200 203 228 245 340 339 342
254 249 260 263 252 263 260 264 274 223 195 256 246 254 258 251 254 256 259 265 261 257 256 258 256 252 253 256 259 260 262 266 270 268 248 232 229 221 219 214 209 209 208 207 205 204 202 198 196 194 192 192 193 193 193 194 196 196 197 200 203 205 207 209 211 213 215 216 216 216 215 214 211 208 207 205 203 202 200 199 200 199 197 193 189 185 182 184 185 190 197 200 205 145 33 13 357
239 240 259 267 254 270 268 254 266 248 176 260 260 260 262 253 254 255 255 257 256 253 250 253 256 253 251 250 254 260 262 267 270 269 252 227 224 218 212 209 207 209 207 204 204 201 197 196 195 193 191 192 194 195 195 197 199 200 201 201 202 203 206 210 211 213 214 215 215 216 216 215 213 210 208 207 206 205 203 203 202 200 199 196 193 190 187 187 190 191 195 205 200 120 78 55 9
221 220 242 258 248 262 266 245 262 260 196 258 272 269 267 260 259 253 248 250 251 256 254 253 254 248 249 248 251 259 261 262 265 268 262 225 219 216 207 207 207 206 203 199 199 197 195 195 194 192 192 193 194 195 196 197 198 198 201 203 202 203 206 208 210 213 213 214 214 215 216 216 214 211 209 208 208 207 206 205 204 202 200 199 198 196 192 191 192 194 197 208 210 161 112 101 34
223 204 220 249 245 240 251 269 311 299 258 260 280 284 275 243 246 249 242 247 251 255 256 258 254 243 247 254 254 255 258 260 261 266 265 227 211 213 207 208 205 200 199 198 197 196 195 195 193 192 193 193 194 195 195 194 193 193 194 196 197 200 204 203 205 209 210 212 213 214 215 215 214 212 210 209 209 209 207 204 204 203 201 199 199 198 196 193 192 196 201 211 223 214 140 125 97
252 202 211 237 245 245 255 281 322 312 282 277 277 290 284 206 215 243 244 248 250 249 250 253 254 248 246 253 255 251 253 258 257 262 263 235 207 210 206 205 201 200 202 200 198 196 195 193 192 192 192 193 194 193 193 192 191 191 189 188 190 193 196 199 204 206 206 208 211 212 213 213 214 213 211 210 210 208 206 204 203 203 202 200 199 197 195 195 195 198 201 210 227 235 187 121 118
273 219 210 231 244 250 254 266 290 263 262 280 111 269 283 257 206 234 240 241 244 246 246 247 250 250 242 245 252 252 253 256 252 255 258 237 209 201 204 204 201 202 203 200 197 194 193 191 191 192 192 193 194 193 192 192 191 192 193 194 194 195 198 203 207 207 206 207 209 210 211 212 214 214 213 211 210 208 206 205 203 203 204 202 200 199 197 197 196 198 203 209 223 229 229 111 114
268 218 195 216 231 237 223 213 222 232 280 287 148 151 273 281 242 205 221 229 236 244 246 247 249 248 244 244 250 253 253 253 249 253 253 232 211 201 206 207 203 202 200 196 193 192 192 191 191 192 192 193 194 193 193 194 194 195 197 199 200 202 205 207 207 206 207 207 207 209 211 212 213 214 215 213 211 209 207 205 204 203 203 201 201 201 199 198 195 199 204 207 217 223 231 250 117
254 165 161 178 194 204 156 158 205 278 337 289 205 136 262 282 258 184 214 220 222 237 239 243 244 243 245 244 250 257 261 261 247 247 249 226 208 209 210 208 202 200 198 194 193 191 190 191 191 191 192 193 194 194 195 196 198 199 199 201 204 208 209 210 207 205 206 206 205 207 209 210 212 213 216 216 213 211 208 207 205 203 202 201 202 200 198 198 198 202 206 208 214 216 222 256 272
238 111 100 70 75 83 97 136 139 52 308 266 203 153 225 283 284 140 185 206 216 232 235 242 242 241 249 251 255 259 265 269 253 237 243 225 209 212 208 201 198 197 197 194 190 189 189 190 190 191 193 194 195 196 197 198 200 201 202 204 206 208 208 209 208 205 205 205 205 205 207 208 210 211 214 215 215 213 210 208 207 205 203 202 202 200 198 199 199 202 205 208 213 212 214 228 244
97 92 55 25 14 27 49 31 79 52 280 243 183 180 190 275 293 138 172 208 217 224 228 247 252 254 259 255 256 259 258 265 261 239 229 220 205 203 197 193 193 193 192 189 188 188 189 189 190 192 194 195 196 197 199 201 201 203 206 207 208 208 206 205 204 203 204 203 204 204 205 206 208 209 211 212 214 214 211 209 209 207 205 204 203 201 201 200 200 201 203 207 208 207 206 206 219
97 101 64 15 330 3 23 352 54 188 262 232 187 184 182 233 259 199 234 253 222 212 220 233 242 250 256 253 253 257 255 259 266 255 207 178 174 182 186 187 187 187 187 186 187 187 188 190 191 192 195 197 198 199 201 202 203 206 209 209 210 209 207 206 205 205 204 203 204 204 203 205 206 207 208 209 211 212 211 209 208 207 205 204 204 203 202 200 200 202 203 205 204 201 199 200 206
115 123 125 320 301 337 349 313 10 221 257 239 185 174 205 240 246 237 263 271 236 209 217 224 227 235 246 254 254 257 264 264 259 250 205 182 185 184 188 187 185 187 188 186 187 187 189 191 192 193 196 198 199 200 202 204 205 208 210 211 212 211 210 210 210 209 208 206 205 203 203 204 204 204 205 207 208 209 208 208 207 206 205 204 204 203 201 200 201 203 203 203 202 199 200 201 201
162 160 160 172 211 243 256 269 274 258 269 270 170 164 248 278 262 223 235 253 241 207 214 226 226 234 243 254 261 267 278 276 224 223 215 202 201 195 195 192 190 192 191 188 188 189 190 192 194 197 199 199 200 202 203 205 208 210 211 212 213 212 213 214 214 213 212 210 207 206 206 205 205 206 206 206 207 207 207 208 208 206 205 204 203 201 201 201 202 203 202 201 199 200 202 202 203
189 164 143 179 191 178 196 228 251 260 282 306 228 179 223 267 269 225 221 248 263 215 224 239 248 260 263 270 275 269 271 267 207 220 227 218 208 201 201 199 199 197 192 191 191 191 192 194 197 199 200 200 201 203 204 206 210 211 212 213 213 213 214 215 216 216 214 213 211 210 210 209 208 209 208 208 207 206 206 207 207 206 205 204 202 201 201 201 201 200 200 200 200 202 204 204 205
232 120 114 221 204 171 210 245 237 242 297 292 239 219 233 245 270 262 248 268 276 256 255 261 259 259 259 263 261 259 270 289 258 242 248 243 219 203 204 202 203 201 195 194 195 194 197 199 201 202 203 203 202 204 206 208 210 211 212 213 214 214 215 216 217 217 216 216 214 213 213 212 212 211 210 209 208 207 206 206 205 205 204 203 202 201 201 201 200 199 199 199 200 203 204 204 205
189 125 185 219 171 157 220 269 280 121 261 261 237 251 277 306 284 270 249 256 262 269 267 247 246 253 257 262 262 270 298 317 296 268 270 272 254 228 217 206 203 202 198 199 199 200 202 203 204 205 205 204 205 207 209 210 210 211 212 214 214 214 215 217 217 217 217 217 216 215 215 214 213 213 211 209 208 206 206 206 204 203 202 202 201 201 201 201 199 200 200 201 202 202 203 204 205
127 175 215 185 101 138 169 243 315 261 251 262 265 265 276 301 284 303 6 293 272 268 264 253 263 273 271 271 274 280 293 295 277 259 249 248 244 236 226 214 208 205 205 206 206 205 207 208 208 207 206 206 208 209 210 211 211 211 213 214 215 215 216 217 218 218 217 216 217 216 216 215 214 213 211 210 208 206 205 205 204 202 201 200 201 200 200 199 199 200 201 201 202 202 202 202 203
136 209 232 109 161 246 161 179 222 235 245 256 261 267 273 250 254 287 299 277 278 280 291 308 289 272 266 271 276 275 272 274 272 259 245 235 227 224 219 216 212 210 212 213 212 212 213 214 214 213 213 212 212 211 211 213 213 214 215 216 216 217 217 217 218 217 217 217 217 216 215 215 214 212 211 210 208 206 204 203 203 201 199 199 200 200 199 199 200 200 200 199 199 200 201 198 197
49 304 324 64 187 199 182 187 179 220 245 253 247 257 271 252 232 233 241 246 257 267 284 290 263 248 245 244 260 275 269 264 265 259 253 246 237 228 213 211 212 212 215 217 215 216 217 219 219 218 219 218 216 215 214 215 216 216 217 217 218 218 218 217 217 216 216 218 218 216 215 214 213 211 211 210 209 207 205 203 202 201 199 198 199 199 199 200 200 200 199 199 198 198 198 195 195
196 235 250 248 231 202 237 240 177 203 242 254 253 250 262 265 222 220 249 240 216 221 252 293 291 277 256 238 240 261 264 261 256 250 250 246 247 244 224 218 218 216 219 219 217 219 219 220 221 221 221 219 219 218 217 217 217 217 218 218 219 219 217 217 216 216 217 218 218 217 215 214 212 211 210 208 209 207 205 203 202 201 200 199 199 198 199 200 198 198 198 198 197 197 195 193 194
196 205 218 220 224 228 257 250 213 200 237 246 260 257 260 281 270 224 249 249 225 231 262 297 303 291 281 273 261 255 256 259 253 247 250 246 245 247 230 219 216 216 219 219 218 220 220 221 221 221 220 220 221 220 219 219 218 217 218 219 219 218 216 215 215 216 217 217 217 216 214 212 211 210 209 208 207 206 204 203 202 202 202 201 200 199 199 199 198 196 196 196 197 196 194 193 193